TimeCDT,TemperatureF,Dew PointF,Humidity,Sea Level PressureIn,VisibilityMPH,Wind Direction,Wind SpeedMPH,Gust SpeedMPH,PrecipitationIn,Events,Conditions,WindDirDegrees,DateUTC
12:52 AM,71.1,68.0,90,29.97,10.0,East,3.5,-,N/A,,Clear,90,2013-08-29 05:52:00
1:52 AM,70.0,66.9,90,29.97,10.0,ESE,5.8,-,N/A,,Clear,110,2013-08-29 06:52:00
2:52 AM,70.0,66.9,90,29.96,10.0,ESE,4.6,-,N/A,,Clear,110,2013-08-29 07:52:00
3:52 AM,68.0,66.0,93,29.96,10.0,East,3.5,-,N/A,,Clear,100,2013-08-29 08:52:00
4:52 AM,68.0,66.0,93,29.96,10.0,East,5.8,-,N/A,,Clear,100,2013-08-29 09:52:00
5:52 AM,66.9,64.9,93,29.96,10.0,East,5.8,-,N/A,,Clear,100,2013-08-29 10:52:00
6:52 AM,66.9,64.9,93,29.97,10.0,East,5.8,-,N/A,,Clear,100,2013-08-29 11:52:00
7:52 AM,70.0,66.0,87,29.99,10.0,East,5.8,-,N/A,,Clear,100,2013-08-29 12:52:00
8:52 AM,73.0,69.1,87,29.98,10.0,SE,5.8,-,N/A,,Clear,130,2013-08-29 13:52:00
9:52 AM,78.1,71.1,79,29.97,10.0,SE,8.1,-,N/A,,Clear,130,2013-08-29 14:52:00
10:52 AM,82.0,73.0,74,29.96,10.0,SE,8.1,-,N/A,,Clear,130,2013-08-29 15:52:00
11:52 AM,84.9,75.0,72,29.95,10.0,SSE,10.4,-,N/A,,Clear,160,2013-08-29 16:52:00
12:52 PM,88.0,73.9,63,29.93,10.0,SSE,11.5,-,N/A,,Clear,160,2013-08-29 17:52:00
1:52 PM,91.0,73.0,55,29.92,10.0,South,10.4,-,N/A,,Clear,190,2013-08-29 18:52:00
2:52 PM,91.9,73.0,54,29.91,10.0,SSW,11.5,-,N/A,,Clear,200,2013-08-29 19:52:00
3:52 PM,91.9,73.9,55,29.89,10.0,South,11.5,-,N/A,,Clear,180,2013-08-29 20:52:00
4:52 PM,91.9,75.0,58,29.88,10.0,SSW,10.4,-,N/A,,Clear,210,2013-08-29 21:52:00
5:52 PM,91.0,75.0,59,29.87,10.0,South,9.2,-,N/A,,Clear,190,2013-08-29 22:52:00
6:52 PM,89.1,75.9,65,29.86,10.0,South,6.9,-,N/A,,Clear,170,2013-08-29 23:52:00
7:52 PM,84.9,75.9,74,29.86,10.0,SSE,5.8,-,N/A,,Clear,150,2013-08-30 00:52:00
8:52 PM,81.0,75.9,85,29.87,10.0,ESE,5.8,-,N/A,,Clear,120,2013-08-30 01:52:00
9:52 PM,79.0,75.0,88,29.87,10.0,ESE,6.9,-,N/A,,Clear,120,2013-08-30 02:52:00
10:52 PM,77.0,75.0,94,29.86,10.0,ESE,8.1,-,N/A,,Clear,120,2013-08-30 03:52:00
11:52 PM,75.9,73.0,91,29.86,10.0,ESE,8.1,-,N/A,,Clear,110,2013-08-30 04:52:00